www.pogodaiklimat.ru

Погода и климат >> Архив погоды >> Япония >> Сасебо


ПОГОДА в Сасебо

  • Прогноз погоды в Сасебо
  • Монитор погоды в Сасебо

АРХИВ ПОГОДЫ в Сасебо

Время (UTC), дата Ветер
(напр.,м/с)
 
Видим.   Явления Облачность Т
(С)
Тd
(С)
f
(%)
Тe
(С)
Тes
(С)
Комфортность P
(гПа)
Po
(гПа)
Тmin
(С)
Tmax
(С)
R
(мм)
R24
(мм)
S
(см)
10 10.07 ЮВ 5 18 км слаб. дождь н/о +25.8 +24.8 94 +37 +37 очень
душно
1001.6 1001.0
11 10.07 ЮВ 5 8000 м слаб. дождь н/о +25.6 +24.9 96 +36 +36 очень
душно
1002.0 1001.4
12 10.07 ЮВ 4 19 км в посл. час дождь н/о +26.3 +25.3 94 +38 +38 очень
душно
1002.5 1001.9 +26.6 20
13 10.07 ЮВ 6 17 км н/о +26.7 +24.9 90 +38 +38 очень
душно
1002.7 1002.1
14 10.07 ЮВ 5 20 км н/о +26.8 +24.3 86 +37 +37 очень
душно
1002.9 1002.3
15 10.07 Ю 7 20 км н/о +27.3 +24.2 83 +38 +38 очень
душно
1002.9 1002.3
16 10.07 Ю 8 20 км слаб. дождь н/о +27.2 +24.3 84 +38 +38 очень
душно
1003.0 1002.4
17 10.07 Ю 7 11 км слаб. дождь н/о +26.8 +24.3 86 +37 +37 очень
душно
1002.9 1002.3
18 10.07 Ю 8 20 км в посл. час дождь н/о +26.2 +23.1 83 +35 +35 очень
душно
1003.1 1002.5 0.0
19 10.07 Ю 5 15 км в посл. час дождь н/о +25.3 +23.0 87 +34 +34 очень
душно
1003.5 1002.9
20 10.07 Ю 5 15 км слаб. дождь н/о +24.6 +22.7 89 +32 +32 очень
душно
1004.2 1003.6
21 10.07 Ю 6 13 км слаб. дождь н/о +24.0 +22.6 92 +31 +31 очень
душно
1004.6 1004.0
22 10.07 Ю 6 19 км слаб. дождь н/о +24.1 +22.7 92 +32 +32 очень
душно
1005.4 1004.8
23 10.07 Ю 5 12 км слаб. дождь н/о +24.0 +23.0 94 +32 +32 очень
душно
1006.1 1005.5
00 11.07 ЮЗ 6 18 км слаб. дождь н/о +24.4 +22.7 90 +32 +32 очень
душно
1006.6 1006.0 +23.9 0.0
01 11.07 ЮЗ 5 20 км в посл. час дождь н/о +24.9 +22.6 87 +33 +33 очень
душно
1006.6 1006.0
02 11.07 ЮЗ 4 20 км н/о +25.2 +21.9 82 +32 +32 очень
душно
1006.7 1006.1
03 11.07 ЮЗ 4 20 км {дождь} н/о +25.8 +22.3 81 +34 +34 очень
душно
1006.8 1006.2
04 11.07 ЮЗ 5 20 км н/о +25.5 +21.8 80 +33 +33 очень
душно
1007.0 1006.4
05 11.07 ЮЗ 5 20 км н/о +26.9 +21.7 73 +34 +34 очень
душно
1007.0 1006.4
06 11.07 З 3 20 км {дождь} н/о +26.3 +21.3 74 +33 +33 очень
душно
1006.9 1006.3 0.0
07 11.07 ЮЗ 2 20 км н/о +26.4 +21.2 73 +33 +33 очень
душно
1006.9 1006.3
08 11.07 З 4 20 км н/о +24.7 +21.8 84 +32 +32 очень
душно
1007.1 1006.5
09 11.07 З 3 20 км н/о +24.6 +21.5 83 +31 +31 очень
душно
1007.4 1006.8
10 11.07 З 3 20 км н/о +24.4 +21.5 84 +31 +31 очень
душно
1007.7 1007.1
11 11.07 З 3 20 км н/о +24.4 +21.3 83 +31 +31 очень
душно
1008.0 1007.4
12 11.07 ЮЗ 1 20 км н/о +24.1 +21.6 86 +31 +31 очень
душно
1008.6 1008.0 +27.3 0.0
13 11.07 ЮЗ 2 20 км н/о +24.0 +21.1 84 +30 +30 очень
душно
1008.4 1007.8
14 11.07 ЮЗ 2 20 км н/о +23.7 +21.6 88 +30 +30 очень
душно
1008.6 1008.0
15 11.07 ЮЗ 2 20 км н/о +23.8 +21.3 86 +30 +30 очень
душно
1008.6 1008.0
16 11.07 ЮЗ 3 20 км н/о +23.7 +21.6 88 +30 +30 очень
душно
1008.2 1007.6
17 11.07 З 4 20 км н/о +23.3 +21.4 89 +31 +31 очень
душно
1008.2 1007.6
18 11.07 З 4 20 км н/о +23.1 +20.8 87 +31 +31 очень
душно
1008.0 1007.4
19 11.07 З 3 20 км н/о +23.1 +21.2 89 +31 +31 очень
душно
1008.2 1007.6
20 11.07 З 3 20 км н/о +23.1 +21.0 88 +31 +31 очень
душно
1008.6 1008.0
21 11.07 З 1 20 км н/о +23.2 +21.1 88 +31 +31 очень
душно
1008.5 1007.9
22 11.07 З 2 20 км н/о +23.5 +21.0 86 +30 +30 очень
душно
1008.8 1008.2
23 11.07 З 3 20 км н/о +24.2 +20.9 82 +30 +30 очень
душно
1008.9 1008.3
00 12.07 З 4 20 км н/о +24.3 +20.4 79 +30 +30 очень
душно
1008.7 1008.1 +23.0
01 12.07 З 4 20 км н/о +24.4 +20.3 78 +30 +30 очень
душно
1008.8 1008.2
02 12.07 З 4 20 км н/о +25.3 +19.7 71 +31 +31 очень
душно
1008.6 1008.0
03 12.07 З 4 20 км н/о +25.3 +19.7 71 +31 +31 очень
душно
1008.7 1008.1
04 12.07 ЮЗ 4 20 км н/о +25.9 +20.2 71 +32 +32 очень
душно
1008.0 1007.4
06 12.07 З 3 20 км н/о +26.0 +19.4 67 +31 +31 очень
душно
1007.2 1006.6
07 12.07 З 4 20 км н/о +25.1 +19.0 69 +30 +30 душно 1006.9 1006.3
08 12.07 З 3 20 км н/о +24.8 +19.2 71 +30 +30 душно 1006.6 1006.0
09 12.07 З 3 20 км н/о +24.6 +18.8 70 +29 +29 душно 1006.3 1005.7
10 12.07 Ю 2 20 км н/о +24.0 +20.1 79 +30 +30 очень
душно
1006.5 1005.9
11 12.07 З 3 20 км н/о +23.6 +20.0 80 +29 +29 душно 1007.1 1006.5
13 12.07 СЗ 2 20 км н/о +23.3 +19.9 81 +30 +30 очень
душно
1007.4 1006.8
14 12.07 Ю 1 20 км н/о +22.9 +20.6 87 +30 +30 очень
душно
1007.1 1006.5
15 12.07 З 1 20 км слаб. дождь н/о +23.0 +20.0 83 +30 +30 очень
душно
1006.8 1006.2
16 12.07 ЮЗ 1 20 км слаб. дождь н/о +23.0 +20.2 84 +30 +30 очень
душно
1006.3 1005.7
17 12.07 З 1 20 км слаб. дождь н/о +23.0 +20.0 83 +30 +30 очень
душно
1006.2 1005.6
18 12.07 штиль 0 16 км слаб. дождь н/о +22.4 +21.0 92 +29 +29 очень
душно
1005.5 1004.9 0.5
19 12.07 В 2 16 км слаб. дождь н/о +22.1 +21.4 96 +29 +29 очень
душно
1004.8 1004.2
20 12.07 В 2 14 км слаб. дождь н/о +21.9 +20.9 94 +28 +28 душно 1005.0 1004.4
21 12.07 В 2 11 км слаб. дождь н/о +21.8 +21.0 95 +28 +28 душно 1004.7 1004.1
22 12.07 С 2 19 км слаб. дождь н/о +21.2 +18.6 85 +26 +26 душно 1003.9 1003.3
23 12.07 С 1 16 км слаб. дождь н/о +21.4 +19.9 91 +26 +26 душно 1004.7 1004.1
00 13.07 СЗ 1 4600 м дождь н/о +21.2 +20.4 95 +26 +26 душно 1004.7 1004.1 +20.9 8
01 13.07 ЮВ 2 5000 м дождь н/о +20.7 +20.2 97 +26 +26 душно 1003.8 1003.2
02 13.07 ЮВ 5 11 км слаб. дождь н/о +20.3 +19.0 92 +24 +24 комфорт 1002.7 1002.1
03 13.07 ЮВ 8 3300 м дождь н/о +20.1 +19.3 95 +23 +23 комфорт 1000.3 999.7
04 13.07 З 2 1800 м сильн. дождь н/о +20.5 +20.3 99 +26 +26 душно 1000.6 1000.0
05 13.07 ЮВ 1 8000 м дождь н/о +20.7 +20.4 98 +27 +27 душно 999.8 999.2
06 13.07 В 2 20 км слаб. дождь н/о +21.5 +20.5 94 +27 +27 душно 998.9 998.3 51
07 13.07 ЮВ 2 20 км в посл. час дождь н/о +22.5 +21.1 92 +30 +30 очень
душно
998.7 998.1
08 13.07 ЮВ 2 20 км в посл. час дождь н/о +22.4 +21.0 92 +29 +29 очень
душно
998.9 998.3
09 13.07 З 2 12 км слаб. дождь н/о +22.1 +20.9 93 +29 +29 очень
душно
999.1 998.5
10 13.07 ЮВ 2 10 км слаб. дождь н/о +22.0 +21.3 96 +29 +29 очень
душно
999.3 998.7
11 13.07 В 1 20 км слаб. дождь н/о +22.0 +21.5 97 +29 +29 очень
душно
999.4 998.8
12 13.07 В 2 14 км слаб. дождь н/о +21.7 +21.0 96 +28 +28 душно 999.2 998.6 +22.7 51
13 13.07 ЮВ 2 16 км в посл. час дождь н/о +22.0 +21.3 96 +29 +29 очень
душно
1000.1 999.5
14 13.07 З 1 12 км н/о +22.1 +21.6 97 +29 +29 очень
душно
1000.6 1000.0
15 13.07 В 1 9000 м слаб. дождь н/о +22.3 +22.0 98 +30 +30 очень
душно
1000.3 999.7
16 13.07 СЗ 1 7000 м слаб. дождь н/о +22.2 +21.9 98 +29 +29 очень
душно
1000.4 999.8
17 13.07 СЗ 2 6000 м в посл. час дождь н/о +22.3 +22.0 98 +30 +30 очень
душно
1000.1 999.5
18 13.07 С 2 14 км {дождь} н/о +22.6 +21.6 94 +30 +30 очень
душно
999.6 999.0 0.5
19 13.07 СЗ 3 19 км н/о +22.3 +21.3 94 +29 +29 очень
душно
999.6 999.0
20 13.07 СВ 1 16 км в посл. час дождь н/о +22.0 +21.3 96 +29 +29 очень
душно
999.9 999.3
21 13.07 ЮЗ 1 10 км слаб. дождь н/о +21.9 +21.4 97 +28 +28 душно 999.9 999.3
22 13.07 Ю 2 6000 м слаб. дождь н/о +21.7 +21.5 99 +28 +28 душно 1000.1 999.5
23 13.07 Ю 2 11 км в посл. час дождь н/о +22.2 +21.7 97 +29 +29 очень
душно
1000.4 999.8
00 14.07 Ю 2 15 км {дождь} н/о +23.1 +21.9 93 +31 +31 очень
душно
1000.6 1000.0 +21.7 1
01 14.07 ЮЗ 2 20 км н/о +24.2 +22.1 88 +31 +31 очень
душно
1001.0 1000.4
02 14.07 ЮЗ 2 20 км н/о +24.6 +21.9 85 +32 +32 очень
душно
1001.1 1000.5
03 14.07 Ю 1 20 км н/о +25.0 +21.9 83 +32 +32 очень
душно
1000.7 1000.1
04 14.07 Ю 2 20 км н/о +25.4 +22.1 82 +33 +33 очень
душно
1000.4 999.8
05 14.07 С 5 20 км н/о +25.9 +20.9 74 +32 +32 очень
душно
1001.0 1000.4
06 14.07 С 5 20 км н/о +26.1 +20.7 72 +33 +33 очень
душно
1001.1 1000.5
07 14.07 С 5 20 км н/о +26.7 +20.8 70 +33 +33 очень
душно
1001.0 1000.4
08 14.07 СЗ 3 20 км н/о +26.0 +21.0 74 +33 +33 очень
душно
1001.1 1000.5
10 14.07 С 3 20 км н/о +24.7 +20.2 76 +30 +30 очень
душно
1002.0 1001.4
11 14.07 СВ 3 20 км н/о +24.3 +20.2 78 +30 +30 очень
душно
1002.6 1002.0
12 14.07 С 3 20 км н/о +24.3 +20.2 78 +30 +30 очень
душно
1003.6 1003.0 +27.2
13 14.07 С 3 20 км н/о +24.1 +20.4 80 +30 +30 очень
душно
1004.7 1004.1
14 14.07 З 2 20 км н/о +23.5 +20.3 82 +29 +29 душно 1004.7 1004.1
15 14.07 С 3 20 км н/о +24.1 +19.6 76 +29 +29 душно 1004.3 1003.7
16 14.07 СЗ 2 20 км н/о +23.5 +19.9 80 +29 +29 душно 1005.0 1004.4
17 14.07 Ю 1 20 км н/о +23.0 +20.0 83 +30 +30 очень
душно
1004.8 1004.2
18 14.07 З 2 20 км н/о +23.2 +20.0 82 +30 +30 очень
душно
1004.9 1004.3
19 14.07 В 1 20 км н/о +22.2 +20.1 88 +28 +28 душно 1005.0 1004.4
20 14.07 Ю 2 19 км н/о +21.9 +20.4 91 +28 +28 душно 1005.9 1005.3
21 14.07 ЮВ 1 16 км н/о +21.9 +20.5 92 +28 +28 душно 1006.1 1005.5
22 14.07 Ю 2 20 км н/о +23.2 +20.5 85 +31 +31 очень
душно
1006.1 1005.5
23 14.07 Ю 2 20 км н/о +24.9 +20.2 75 +31 +31 очень
душно
1006.3 1005.7
00 15.07 З 2 20 км н/о +26.2 +20.1 69 +32 +32 очень
душно
1006.5 1005.9 +21.7
01 15.07 ЮЗ 2 20 км н/о +27.4 +20.0 64 +34 +34 очень
душно
1006.7 1006.1
02 15.07 Ю 2 20 км н/о +28.0 +19.5 60 +34 +34 очень
душно
1006.4 1005.8
03 15.07 С 4 20 км н/о +29.5 +19.8 56 +36 +36 очень
душно
1006.4 1005.8
04 15.07 Ю 3 20 км н/о +30.0 +19.7 54 +36 +36 очень
душно
1006.3 1005.7
05 15.07 З 3 20 км н/о +30.3 +20.0 54 +37 +37 очень
душно
1006.1 1005.5
06 15.07 С 6 20 км н/о +29.9 +20.5 57 +37 +37 очень
душно
1006.0 1005.4
07 15.07 С 5 20 км н/о +29.8 +19.8 55 +36 +36 очень
душно
1005.8 1005.2
08 15.07 С 5 20 км н/о +29.0 +20.5 60 +36 +36 очень
душно
1005.7 1005.1
09 15.07 СЗ 5 20 км н/о +28.0 +20.8 65 +35 +35 очень
душно
1005.7 1005.1
10 15.07 С 5 20 км н/о +27.0 +20.6 68 +34 +34 очень
душно
1006.2 1005.6
11 15.07 С 3 20 км н/о +26.3 +20.4 70 +33 +33 очень
душно
1006.7 1006.1
12 15.07 ЮЗ 1 20 км н/о +25.1 +20.8 77 +31 +31 очень
душно
1007.7 1007.1 +31.3
13 15.07 Ю 2 20 км н/о +24.2 +20.9 82 +30 +30 очень
душно
1008.4 1007.8
14 15.07 В 2 20 км н/о +23.8 +20.7 83 +30 +30 очень
душно
1009.0 1008.4
15 15.07 ЮВ 1 20 км н/о +23.5 +20.8 85 +29 +29 душно 1009.0 1008.4
16 15.07 В 2 20 км н/о +23.1 +20.6 86 +30 +30 очень
душно
1008.9 1008.3
17 15.07 В 1 20 км н/о +22.6 +20.5 88 +29 +29 очень
душно
1008.9 1008.3
18 15.07 В 1 20 км н/о +22.4 +20.7 90 +29 +29 очень
душно
1008.8 1008.2
19 15.07 В 2 18 км н/о +22.2 +20.7 91 +29 +29 очень
душно
1009.0 1008.4
20 15.07 В 2 17 км н/о +21.8 +20.6 93 +28 +28 душно 1009.0 1008.4
21 15.07 ЮВ 2 15 км н/о +21.8 +20.8 94 +28 +28 душно 1009.4 1008.8
22 15.07 В 1 18 км н/о +22.8 +20.9 89 +30 +30 очень
душно
1009.7 1009.1
23 15.07 З 1 18 км н/о +24.0 +21.1 84 +30 +30 очень
душно
1010.2 1009.6
00 16.07 З 2 20 км н/о +25.5 +21.6 79 +33 +33 очень
душно
1010.3 1009.7 +21.7
01 16.07 ЮЗ 2 20 км н/о +27.2 +21.9 73 +35 +35 очень
душно
1010.3 1009.7
02 16.07 ЮЗ 3 20 км н/о +28.9 +21.7 65 +37 +37 очень
душно
1010.5 1009.9
03 16.07 ЮЗ 3 20 км н/о +28.9 +22.4 68 +38 +38 очень
душно
1010.4 1009.8
04 16.07 ЮЗ 4 20 км н/о +29.3 +22.8 68 +39 +39 очень
душно
1010.1 1009.5
05 16.07 ЮЗ 3 16 км н/о +29.3 +22.5 67 +39 +39 очень
душно
1009.7 1009.1
06 16.07 ЮЗ 4 20 км н/о +29.3 +22.8 68 +39 +39 очень
душно
1009.2 1008.6
07 16.07 ЮЗ 4 20 км н/о +29.3 +22.0 65 +38 +38 очень
душно
1009.1 1008.5
08 16.07 СЗ 4 20 км н/о +28.8 +22.1 67 +37 +37 очень
душно
1008.7 1008.1
09 16.07 СЗ 5 20 км н/о +27.7 +22.0 71 +36 +36 очень
душно
1009.0 1008.4
10 16.07 С 5 20 км н/о +27.0 +21.8 73 +35 +35 очень
душно
1009.1 1008.5
11 16.07 Ю 2 18 км н/о +26.0 +22.3 80 +34 +34 очень
душно
1009.8 1009.2
12 16.07 Ю 3 16 км н/о +25.4 +22.1 82 +33 +33 очень
душно
1010.6 1010.0 +29.9
13 16.07 ЮВ 1 18 км н/о +25.5 +21.6 79 +33 +33 очень
душно
1011.4 1010.8
14 16.07 ЮВ 2 17 км н/о +24.9 +21.8 83 +32 +32 очень
душно
1011.6 1011.0
15 16.07 В 2 17 км н/о +24.3 +21.6 85 +31 +31 очень
душно
1011.4 1010.8
16 16.07 В 1 16 км н/о +24.0 +21.5 86 +31 +31 очень
душно
1011.1 1010.5
17 16.07 В 2 15 км н/о +23.9 +21.8 88 +31 +31 очень
душно
1011.0 1010.4
18 16.07 В 1 14 км н/о +23.4 +21.5 89 +32 +32 очень
душно
1010.6 1010.0
19 16.07 В 2 13 км н/о +23.3 +21.6 90 +31 +31 очень
душно
1010.7 1010.1
21 16.07 В 2 12 км н/о +23.5 +21.6 89 +30 +30 очень
душно
1011.6 1011.0
22 16.07 Ю 1 12 км н/о +24.6 +22.1 86 +32 +32 очень
душно
1011.4 1010.8
23 16.07 В 2 12 км н/о +25.6 +22.3 82 +33 +33 очень
душно
1011.5 1010.9
00 17.07 ЮВ 3 14 км н/о +28.5 +22.7 71 +38 +38 очень
душно
1011.5 1010.9 +22.9
01 17.07 ЮВ 4 13 км н/о +28.8 +23.0 71 +39 +39 очень
душно
1011.6 1011.0
03 17.07 Ю 3 5000 м слаб. дождь н/о +27.0 +24.5 86 +38 +38 очень
душно
1011.5 1010.9
05 17.07 В 2 10 км в посл. час дождь н/о +27.6 +24.7 84 +39 +39 очень
душно
1011.0 1010.4
06 17.07 З 3 8000 м дымка {дождь} н/о +27.5 +25.0 86 +39 +39 очень
душно
1010.5 1009.9 1
07 17.07 ЮЗ 2 10 км н/о +28.4 +24.8 81 +41 +41 опасность
перегрева
1010.4 1009.8
08 17.07 Ю 2 10 км н/о +28.1 +24.7 82 +40 +40 очень
душно
1010.2 1009.6
09 17.07 З 3 10 км н/о +27.4 +24.5 84 +39 +39 очень
душно
1010.4 1009.8

 

Местоположение метеостанции Сасебо (Япония): широта 33.15 долгота 129.73 высота над уровнем моря 6 м.

В архиве по умолчанию представлена погода в Сасебо за последнюю неделю. Архивные данные за месяц целиком и за предыдущие месяцы, начиная с января 2011 года, Вы можете получить, выбрав интересующий диапазон дат из раскрывающегося списка и нажав кнопку "Ввод!".


*Определитесь, кто Вы:
робот инопланетянин человек

Внимание! Время в таблицах - всемирное. Для получения местного времени необходимо прибавить поправку, которая равна 9 ч.

Смотрите также архив погоды в соседних городах и на ближайших метеорологических станциях:

Погода в Хирадо (Япония) (30 км)
Погода в Нагасаки (Япония) (48 км)
Погода в Саге (Япония) (55 км)
Погода на Ундзэне (Япония) (68 км)
Погода в Фукуоке (Япония) (77 км)
Погода в Кумамото (Япония) (97 км)
Погода на Фукуэ (Япония) (98 км)
Погода в Иидзуке (Япония) (105 км)
Погода в Хите (Япония) (113 км)
Погода в Цусиме (Япония) (123 км)

Пояснения к столбцам:

Ветер - указаны скорость ветра в м/с - средняя за 10 мин, порывы в срок и между сроками (в фигурных скобках) и направление, откуда дует ветер: С - северный, СВ - северо-восточный, В - восточный, ЮВ - юго-восточный, Ю - южный, ЮЗ - юго-западный, З - западный, СЗ - северо-западный.
Видимость - горизонтальная дальность видимости в метрах или километрах. При видимости от 1 до 10 км при отсутствии осадков обычно наблюдается дымка, при ухудшении видимости до 1 км и менее - туман. В сухую погоду видимость может ухудшаться дымом, пылью или мглою.
Явления - указаны атмосферные явления, наблюдавшиеся в срок или в последний час перед сроком; фигурными скобками обозначены явления, наблюдавшиеся между сроками (за 1-3 часа до срока); квадратными скобками обозначены град или гололедные отложения с указанием их диаметра в мм.
Облачность - указаны через наклонную черту общая и нижняя облачность в баллах и высота нижней границы облаков в метрах; квадратными скобками обозначены формы облаков: Ci - перистые, Cs - перисто-слоистые, Cc - перисто-кучевые, Ac - высококучевые, As - высокослоистые, Sc - слоисто-кучевые, Ns - слоисто-дождевые, Cu - кучевые, Cb - кучево-дождевые. Подробнее классификацию облаков см. в Атласе облаков (PDF).
T - Температура воздуха - температура, измеренная на высоте 2 м над землей.
Td - Температура точки росы - температура, при понижении до которой содержащийся в воздухе водяной пар достигнет насыщения.
f - Относительная влажность воздуха - влажноcть воздуха, измеренная на высоте 2 м над землей.
Te - Эффективная температура - температура, которую ощущает одетый по сезону человек в тени. Характеристика душности погоды. При расчете учитывается влияние влажности воздуха и скорости ветра на теплоощущения человека.
Tes - Эффективная температура на солнце - температура, которую ощущает человек, с поправкой на солнечный нагрев. Характеристика знойности погоды. Зависит от высоты солнца над горизонтом, облачности и скорости ветра. Ночью, в пасмурную погоду, а также при ветре 12 м/с и более поправка равна нулю.
P - Атмосферное давление - приведенное к уровню моря атмосферное давление.
Po - Атмосферное давление - измеренное на уровне метеостанции атмосферное давление.
Tmin - Минимальная температура - минимум температуры воздуха на высоте 2 м над землей.
Tmax - Максимальная температура - максимум температуры воздуха на высоте 2 м над землей.
R - Количество осадков - Количество выпавших осадков за период времени, мм. При наведении курсора мыши на число - период времени, за который выпало указанное количество осадков.
R24 - Количество осадков - Количество выпавших осадков за 24 часа, мм.
S - Снежный покров - Высота снежного покрова, см. При наведении курсора мыши на число - состояние снежного покрова и степень покрытия местности в баллах.